Location: Unspecified
(42.9300°N, 71.1866°W)
Time: 22:46:02
(UTC-04:00)

CZ-3 Stage 3 - Visible Passes

Search period start: 20 August 2017 00:00
Search period end: 30 August 2017 00:00
Orbit: 429 x 34770 km, 31.0° (Epoch: 20 August)

Date Brightness Start Highest point End Pass type
(mag) Time Alt. Az. Time Alt. Az. Time Alt. Az.
20 Aug 7.0 13:06:32 10° W 13:28:10 62° S 21:13:55 10° SSW visible
22 Aug 8.9 16:41:01 10° W 17:39:03 37° SW 21:33:13 10° WSW visible
23 Aug 7.0 12:57:25 10° W 13:18:51 61° S 21:00:57 10° SSW visible
25 Aug 8.9 16:32:02 10° W 17:29:12 36° SW 21:18:06 10° WSW visible
26 Aug 7.0 12:48:17 10° W 13:09:31 61° S 20:47:51 10° SSW visible
28 Aug 8.8 16:23:04 10° W 17:19:22 35° SW 21:02:57 10° WSW visible
29 Aug 6.9 12:39:09 10° W 13:00:11 60° S 20:34:36 10° SSW visible
